,,10070,10270,13070,13570,15070,16070,
,, West, West, West, West, West, West,
,, SO2, H2S, ET, RH, WS, WD,
,, Ave, Ave, Ave, Ave, Ave, Ave,
,,,,,,,,
,,,,,,,,
,,BC,BC,BC,BC,BC,Raw,
1,2015/09/01 00:00:00,0.295,0.522,11.426,M,7.321,170.224,
2,2015/09/01 01:00:00,Z,Z,11.599,M,7.199,159.429,
3,2015/09/01 02:00:00,0.272,1.803,12.315,M,8.58,133.992,
4,2015/09/01 03:00:00,0.292,0.929,12.086,M,11.677,136.792,
5,2015/09/01 04:00:00,0.207,1.004,11.982,M,7.436,155.611,
6,2015/09/01 05:00:00,0.39,0.901,11.367,M,10.129,178.272,
7,2015/09/01 06:00:00,0.39,1.442,10.493,M,9.446,179.467,
8,2015/09/01 07:00:00,0.436,1.386,12.015,M,10.127,175.409,
9,2015/09/01 08:00:00,0.674,0.87,14.035,M,9.229,196.926,
10,2015/09/01 09:00:00,0.682,0.649,16.707,M,9.146,212.766,
11,2015/09/01 10:00:00,0.573,0.344,18.46,M,15.55,253.35,
12,2015/09/01 11:00:00,0.771,0.249,20.186,M,18.726,262.387,
13,2015/09/01 12:00:00,1.021,0.201,19.636,M,26.175,287.418,
14,2015/09/01 13:00:00,0.533,0.078,19.808,M,24.616,280.147,
15,2015/09/01 14:00:00,0.372,-0.082,20.575,M,23.127,279.558,
16,2015/09/01 15:00:00,0.305,-0.139,20.636,M,20.626,286.138,
17,2015/09/01 16:00:00,0.181,-0.159,20.713,M,16.535,284.306,
18,2015/09/01 17:00:00,0.217,-0.132,20.499,M,13.289,295.308,
19,2015/09/01 18:00:00,0.403,-0.134,20.291,M,8.858,312.429,
20,2015/09/01 19:00:00,0.302,-0.089,18.953,M,7.946,325.689,
21,2015/09/01 20:00:00,0.21,0.079,16.545,M,3.745,53.179,
22,2015/09/01 21:00:00,0.503,2.27,13.16,M,2.319,104.667,
23,2015/09/01 22:00:00,0.362,1.519,13.661,M,5.317,65.575,
24,2015/09/01 23:00:00,0.252,0.913,12.667,M,4.945,49.239,
25,2015/09/02 00:00:00,0.213,1.213,12.66,M,6.894,48.917,
26,2015/09/02 01:00:00,Z,Z,11.155,M,8.153,18.43,
27,2015/09/02 02:00:00,0.489,0.85,11.305,M,8.646,64.624,
28,2015/09/02 03:00:00,0.275,0.751,11.958,M,12.746,72.847,
29,2015/09/02 04:00:00,0.228,0.529,12.179,M,12.903,84.825,
30,2015/09/02 05:00:00,0.2,0.533,12.045,M,16.703,86.374,
31,2015/09/02 06:00:00,6.385,1.696,12.004,M,17.925,110.037,
32,2015/09/02 07:00:00,13.345,3.713,11.982,M,20.091,117.102,
33,2015/09/02 08:00:00,32.499,3.332,12.524,M,19.763,122.653,
34,2015/09/02 09:00:00,2.476,0.948,14.451,M,16.293,129.036,
35,2015/09/02 10:00:00,0.751,0.683,17.663,M,13.07,133.029,
36,2015/09/02 11:00:00,0.716,0.56,20.983,M,15.139,143.628,
37,2015/09/02 12:00:00,0.814,0.604,22.079,M,13.017,154.938,
38,2015/09/02 13:00:00,1.171,0.422,22.458,M,12.953,177.57,
39,2015/09/02 14:00:00,1.245,0.368,23.801,M,14.651,170.185,
40,2015/09/02 15:00:00,0.706,0.282,24.594,M,13.704,180.904,
41,2015/09/02 16:00:00,0.53,0.253,24.733,M,12.602,199.874,
42,2015/09/02 17:00:00,0.532,0.282,24.837,M,10.665,210.15,
43,2015/09/02 18:00:00,0.524,0.397,23.741,M,8.07,205.909,
44,2015/09/02 19:00:00,0.453,0.467,20.801,M,10.752,258.512,
45,2015/09/02 20:00:00,0.45,0.581,16.073,M,34.004,291.981,
46,2015/09/02 21:00:00,0.567,0.358,14.285,M,31.584,297.27,
47,2015/09/02 22:00:00,0.689,0.485,13.312,M,25.647,308.508,
48,2015/09/02 23:00:00,0.881,0.481,12.424,M,15.72,304.024,
49,2015/09/03 00:00:00,0.322,0.421,10.904,M,10.211,261.726,
50,2015/09/03 01:00:00,Z,Z,9.639,M,11.886,266.065,
51,2015/09/03 02:00:00,0.226,0.464,9.09,M,10.507,260.622,
52,2015/09/03 03:00:00,0.106,0.456,8.791,M,12.855,277.402,
53,2015/09/03 04:00:00,0.262,0.56,8.257,M,12.769,265.991,
54,2015/09/03 05:00:00,0.32,0.599,7.967,M,15.494,284.105,
55,2015/09/03 06:00:00,0.46,0.367,7.778,M,20.75,293.075,
56,2015/09/03 07:00:00,0.518,0.359,8.086,M,21.72,295.462,
57,2015/09/03 08:00:00,0.383,0.437,8.571,M,18.969,289.518,
58,2015/09/03 09:00:00,0.566,0.367,8.865,M,20.851,293.802,
59,2015/09/03 10:00:00,0.833,0.317,10.146,M,19.028,296.832,
60,2015/09/03 11:00:00,0.778,0.276,12.295,M,16.744,297.444,
61,2015/09/03 12:00:00,0.481,0.131,13.849,M,15.009,300.354,
62,2015/09/03 13:00:00,0.538,0.157,14.574,M,15.623,292.899,
63,2015/09/03 14:00:00,0.365,0.173,15.369,M,15.565,306.831,
64,2015/09/03 15:00:00,0.496,0.234,15.389,M,14.715,295.683,
65,2015/09/03 16:00:00,0.307,0.236,16.233,M,15.172,297.924,
66,2015/09/03 17:00:00,0.347,0.22,16.254,M,15.019,293.313,
67,2015/09/03 18:00:00,0.108,0.192,14.925,M,17.512,350.719,
68,2015/09/03 19:00:00,0.17,0.268,13.207,M,12.402,1.592,
69,2015/09/03 20:00:00,0.126,0.253,10.57,M,8.81,3.102,
70,2015/09/03 21:00:00,-0.026,0.18,9.296,M,7.675,1.669,
71,2015/09/03 22:00:00,0.037,0.291,8.573,M,5.896,339.19,
72,2015/09/03 23:00:00,0.009,0.258,7.975,M,6.744,341.656,
73,2015/09/04 00:00:00,-0.091,0.285,7.204,M,5.704,340.989,
74,2015/09/04 01:00:00,Z,Z,6.839,M,4.747,350.028,
75,2015/09/04 02:00:00,-0.022,0.4,5.975,M,5.596,344.463,
76,2015/09/04 03:00:00,-0.033,0.677,5.366,M,4.909,334.436,
77,2015/09/04 04:00:00,0.008,0.831,4.955,M,7.104,331.993,
78,2015/09/04 05:00:00,0.002,0.596,4.903,M,6.735,334.488,
79,2015/09/04 06:00:00,0.067,0.633,5.159,M,7.748,341.803,
80,2015/09/04 07:00:00,0.062,0.697,5.344,M,7.407,342.108,
81,2015/09/04 08:00:00,0.272,0.594,6.682,M,9.245,346.624,
82,2015/09/04 09:00:00,0.272,0.421,8.494,M,9.119,15.566,
83,2015/09/04 10:00:00,0.174,0.162,10.583,M,12.929,6.997,
84,2015/09/04 11:00:00,0.089,0.068,11.902,M,15.055,9.871,
85,2015/09/04 12:00:00,0.006,0.047,12.368,M,12.559,12.768,
86,2015/09/04 13:00:00,0.411,0.016,12.517,M,13.24,349.612,
87,2015/09/04 14:00:00,-0.27,0.008,12.821,M,11.494,9.165,
88,2015/09/04 15:00:00,-0.062,-0.014,12.843,M,8.663,12.254,
89,2015/09/04 16:00:00,0.116,-0.043,13.122,M,10.11,7.167,
90,2015/09/04 17:00:00,0.04,-0.023,12.977,M,11.144,8.042,
91,2015/09/04 18:00:00,0.082,-0.018,11.925,M,11.397,356.278,
92,2015/09/04 19:00:00,0.013,-0.072,10.864,M,14.455,359.82,
93,2015/09/04 20:00:00,-0.069,-0.061,9.679,M,9.379,8.422,
94,2015/09/04 21:00:00,0.078,0.101,9.066,M,7.857,20.59,
95,2015/09/04 22:00:00,0.071,0.129,8.574,M,6.29,20.313,
96,2015/09/04 23:00:00,0.022,0.216,7.799,M,6.112,351.132,
97,2015/09/05 00:00:00,-0.079,0.203,7.465,M,4.345,14.061,
98,2015/09/05 01:00:00,Z,Z,7.396,M,5.429,10.171,
99,2015/09/05 02:00:00,-0.189,0.58,7.259,M,5.51,16.424,
100,2015/09/05 03:00:00,-0.276,0.519,7.304,M,4.549,354.937,
101,2015/09/05 04:00:00,-0.01,0.529,7.587,M,4.986,0.699,
102,2015/09/05 05:00:00,0.132,0.528,7.771,M,8.047,11.959,
103,2015/09/05 06:00:00,0.017,0.472,7.604,M,10.089,10.472,
104,2015/09/05 07:00:00,0.055,0.368,7.919,M,7.938,26.526,
105,2015/09/05 08:00:00,0.366,0.201,8.568,M,7.439,47.74,
106,2015/09/05 09:00:00,0.84,0.133,10.018,M,13.023,42.53,
107,2015/09/05 10:00:00,0.6,0.071,11.353,M,12.894,56.097,
108,2015/09/05 11:00:00,0.58,0.044,11.61,M,15.154,56.864,
109,2015/09/05 12:00:00,0.31,0.067,12.262,M,14.785,53.393,
110,2015/09/05 13:00:00,0.122,0.044,12.751,M,13.713,52.071,
111,2015/09/05 14:00:00,0.178,0.137,12.996,M,12.847,54.711,
112,2015/09/05 15:00:00,0.073,0.065,13.453,M,14.292,60.482,
113,2015/09/05 16:00:00,0.071,0.046,12.528,M,13.467,68.51,
114,2015/09/05 17:00:00,0.066,0.022,10.922,M,9.002,63.359,
115,2015/09/05 18:00:00,0.042,0.11,10.091,M,9.728,48.267,
116,2015/09/05 19:00:00,0.019,0.184,9.792,M,11.947,52.985,
117,2015/09/05 20:00:00,0.001,0.214,9.546,M,11.869,51.575,
118,2015/09/05 21:00:00,0.047,0.163,9.145,M,8.986,55.169,
119,2015/09/05 22:00:00,0.103,0.204,8.898,M,13.046,55.871,
120,2015/09/05 23:00:00,0.188,0.311,8.86,M,9.958,40.392,
121,2015/09/06 00:00:00,0.287,0.402,8.924,M,10.71,44.424,
122,2015/09/06 01:00:00,Z,Z,8.861,M,13.145,49.361,
123,2015/09/06 02:00:00,0.104,0.457,8.392,M,15.11,31.314,
124,2015/09/06 03:00:00,0.213,0.395,8.262,M,16.386,54.276,
125,2015/09/06 04:00:00,0.118,0.573,8.2,M,13.991,34.474,
126,2015/09/06 05:00:00,0.176,0.519,7.923,M,18.675,25.089,
127,2015/09/06 06:00:00,0.06,0.416,7.782,M,17.361,26.771,
128,2015/09/06 07:00:00,0.125,0.52,7.817,M,14.617,26.088,
129,2015/09/06 08:00:00,0.222,0.464,7.945,M,18.257,27.026,
130,2015/09/06 09:00:00,0.234,0.559,8.019,M,20.659,10.954,
131,2015/09/06 10:00:00,0.271,0.571,7.794,M,20.352,0.163,
132,2015/09/06 11:00:00,0.333,0.52,7.793,M,16.607,350.413,
133,2015/09/06 12:00:00,0.309,0.607,8.542,M,14.733,354.389,
134,2015/09/06 13:00:00,0.315,0.628,8.998,M,16.114,346.815,
135,2015/09/06 14:00:00,0.374,0.615,9.045,M,15.803,319.072,
136,2015/09/06 15:00:00,0.357,0.587,8.968,M,19.194,314.976,
137,2015/09/06 16:00:00,0.283,0.552,9.084,M,20.129,320.676,
138,2015/09/06 17:00:00,0.255,0.551,9.11,M,19.65,324.932,
139,2015/09/06 18:00:00,0.273,0.564,8.976,M,20.106,328.36,
140,2015/09/06 19:00:00,0.234,0.543,8.367,M,22.88,337.111,
141,2015/09/06 20:00:00,0.15,0.492,7.858,M,22.011,337.418,
142,2015/09/06 21:00:00,0.187,0.408,7.298,M,24.369,331.208,
143,2015/09/06 22:00:00,0.172,0.336,6.878,M,24.855,325.66,
144,2015/09/06 23:00:00,0.147,0.346,6.721,M,24.825,325.487,
145,2015/09/07 00:00:00,0.222,0.343,6.611,M,24.202,323.725,
146,2015/09/07 01:00:00,Z,Z,6.441,M,22.368,317.592,
147,2015/09/07 02:00:00,0.05,0.312,6.284,M,22.812,315.288,
148,2015/09/07 03:00:00,0.036,0.437,6.246,M,23.894,312.154,
149,2015/09/07 04:00:00,0.008,0.46,6.279,M,21.114,311.466,
150,2015/09/07 05:00:00,0.17,0.616,6.405,M,20.293,311.949,
151,2015/09/07 06:00:00,0.185,0.842,6.5,M,19.886,309.556,
152,2015/09/07 07:00:00,0.022,0.451,6.346,M,19.606,312.677,
153,2015/09/07 08:00:00,0.062,0.295,6.517,M,19.087,314.39,
154,2015/09/07 09:00:00,0.084,0.341,7.083,M,19.832,312.365,
155,2015/09/07 10:00:00,0.216,0.439,7.604,M,19.167,310.088,
156,2015/09/07 11:00:00,0.252,0.414,7.775,M,16.234,318.963,
157,2015/09/07 12:00:00,0.175,0.13,8.293,M,17.523,321.919,
158,2015/09/07 13:00:00,0.239,0.225,9.398,M,19.022,321.197,
159,2015/09/07 14:00:00,0.67,0.616,8.375,M,18.16,309.736,
160,2015/09/07 15:00:00,1.546,0.375,9.941,M,16.011,296.589,
161,2015/09/07 16:00:00,1.743,0.379,10.38,M,16.661,295.205,
162,2015/09/07 17:00:00,2.043,0.701,10.887,M,14.124,309.31,
163,2015/09/07 18:00:00,0.794,0.274,10.644,M,10.771,334.911,
164,2015/09/07 19:00:00,0.39,0.229,8.678,M,3.541,6.329,
165,2015/09/07 20:00:00,0.154,0.394,7.968,M,2.131,231.728,
166,2015/09/07 21:00:00,0.379,0.648,7.935,M,4.885,242.328,
167,2015/09/07 22:00:00,0.263,0.477,8.112,M,7.322,266.485,
168,2015/09/07 23:00:00,0.277,0.336,8.49,M,7.999,270.583,
169,2015/09/08 00:00:00,0.21,0.241,8.023,M,9.294,268.714,
170,2015/09/08 01:00:00,Z,Z,7.702,M,9.46,273.4,
171,2015/09/08 02:00:00,0.15,0.018,7.221,M,10.294,275.539,
172,2015/09/08 03:00:00,0.34,0.402,6.909,M,10.209,284.04,
173,2015/09/08 04:00:00,0.687,0.894,6.625,M,8.531,310.934,
174,2015/09/08 05:00:00,0.651,1.084,5.997,M,6.38,301.798,
175,2015/09/08 06:00:00,0.477,1.418,4.912,M,4.215,308.059,
176,2015/09/08 07:00:00,0.868,1.973,5.656,M,3.476,309.172,
177,2015/09/08 08:00:00,0.483,0.944,7.892,M,3.283,26.16,
178,2015/09/08 09:00:00,1.611,0.377,9.305,M,5.407,49.899,
179,2015/09/08 10:00:00,2.034,0.228,10.691,M,3.891,47.813,
180,2015/09/08 11:00:00,1.548,0.19,11.563,M,2.615,42.126,
181,2015/09/08 12:00:00,1.546,0.331,12.576,M,5.074,353.203,
182,2015/09/08 13:00:00,1.496,0.283,13.719,M,3.958,338.407,
183,2015/09/08 14:00:00,0.811,0.124,14.78,M,5.19,345.352,
184,2015/09/08 15:00:00,0.799,0.21,15.753,M,9.565,327.581,
185,2015/09/08 16:00:00,0.601,0.161,15.883,M,10.717,336.39,
186,2015/09/08 17:00:00,0.8,0.192,16.244,M,11.323,14.573,
187,2015/09/08 18:00:00,0.861,0.217,15.211,M,12.077,15.125,
188,2015/09/08 19:00:00,0.575,0.312,12.431,M,9.897,16.85,
189,2015/09/08 20:00:00,0.285,0.169,11.109,M,10.622,33.689,
190,2015/09/08 21:00:00,0.191,0.153,10.043,M,7.192,45.282,
191,2015/09/08 22:00:00,0.254,0.104,9.437,M,6.124,69.811,
192,2015/09/08 23:00:00,0.324,0.131,8.726,M,7.12,98.864,
193,2015/09/09 00:00:00,0.677,0.626,7.167,M,6.131,125.541,
194,2015/09/09 01:00:00,Z,Z,5.649,M,4.495,137.585,
195,2015/09/09 02:00:00,0.092,0.226,5.287,M,4.913,194.46,
196,2015/09/09 03:00:00,0.185,0.25,5.132,M,4.101,217.925,
197,2015/09/09 04:00:00,0.212,0.268,4.343,M,4.868,212.967,
198,2015/09/09 05:00:00,0.197,0.223,4.205,M,5.156,207.701,
199,2015/09/09 06:00:00,0.143,0.38,3.781,M,5.906,201.431,
200,2015/09/09 07:00:00,0.269,0.492,5.676,M,4.467,202.559,
201,2015/09/09 08:00:00,0.306,0.47,8.38,M,4.849,184.634,
202,2015/09/09 09:00:00,0.344,0.2,10.54,M,6.524,177.707,
203,2015/09/09 10:00:00,0.475,0.101,12.566,M,8.069,155.963,
204,2015/09/09 11:00:00,0.461,0.036,14.402,M,7.909,152.117,
205,2015/09/09 12:00:00,0.139,0.036,15.384,M,7.725,152.599,
206,2015/09/09 13:00:00,0.125,0.005,16.275,M,7.228,142.858,
207,2015/09/09 14:00:00,0.123,0.117,16.847,M,6.826,158.171,
208,2015/09/09 15:00:00,0.229,0.043,16.878,M,7.317,176.919,
209,2015/09/09 16:00:00,0.222,0.085,16.5,M,6.407,220.444,
210,2015/09/09 17:00:00,0.165,0.138,16.795,M,9.157,155.34,
211,2015/09/09 18:00:00,0.145,0.161,14.415,M,6.484,159.273,
212,2015/09/09 19:00:00,0.204,0.281,12.224,M,3.826,155.355,
213,2015/09/09 20:00:00,0.141,0.312,11.344,M,5.517,187.667,
214,2015/09/09 21:00:00,0.083,0.28,11.385,M,5.566,187.191,
215,2015/09/09 22:00:00,0.229,0.241,11.123,M,4.906,184.593,
216,2015/09/09 23:00:00,0.213,0.267,10.451,M,4.393,173.994,
217,2015/09/10 00:00:00,0.11,0.474,9.397,M,5.221,169.723,
218,2015/09/10 01:00:00,Z,Z,8.719,M,4.801,185.672,
219,2015/09/10 02:00:00,0.142,0.293,8.812,M,5.503,177.038,
220,2015/09/10 03:00:00,0.181,0.437,9.013,M,5.804,184.268,
221,2015/09/10 04:00:00,0.13,0.26,8.592,M,4.857,217.742,
222,2015/09/10 05:00:00,0.087,0.469,8.036,M,4.457,224.809,
223,2015/09/10 06:00:00,0.19,0.542,7.512,M,4.961,230.021,
224,2015/09/10 07:00:00,0.201,0.572,8.896,M,6.503,239.449,
225,2015/09/10 08:00:00,0.197,0.501,11.161,M,8.309,264.823,
226,2015/09/10 09:00:00,0.226,0.191,13.566,M,9.045,262.628,
227,2015/09/10 10:00:00,0.296,0.142,15.233,M,7.077,239.377,
228,2015/09/10 11:00:00,0.661,0.162,16.56,M,7.211,244.038,
229,2015/09/10 12:00:00,0.607,0.124,17.554,M,7.466,263.576,
230,2015/09/10 13:00:00,0.722,0.068,18.247,M,8.363,255.722,
231,2015/09/10 14:00:00,1.365,0.126,18.544,M,10.009,261.482,
232,2015/09/10 15:00:00,0.796,0.058,18.646,M,8.664,257.731,
233,2015/09/10 16:00:00,0.73,0.152,19.1,M,8.36,264.448,
234,2015/09/10 17:00:00,0.729,0.115,19.171,M,7.377,237.71,
235,2015/09/10 18:00:00,0.636,0.094,19.296,M,10.923,258.56,
236,2015/09/10 19:00:00,0.566,0.194,16.885,M,5.807,235.16,
237,2015/09/10 20:00:00,0.712,0.319,14.504,M,5.569,222.178,
238,2015/09/10 21:00:00,0.712,0.311,13.512,M,6.135,213.267,
239,2015/09/10 22:00:00,0.461,0.229,12.821,M,6.794,212.7,
240,2015/09/10 23:00:00,0.459,0.249,12.271,M,7.183,211.375,
241,2015/09/11 00:00:00,0.492,0.242,11.8,M,7.697,209.516,
242,2015/09/11 01:00:00,Z,Z,11.136,M,7.81,206.476,
243,2015/09/11 02:00:00,0.485,0.295,11.265,M,7.703,206.52,
244,2015/09/11 03:00:00,0.528,0.422,11.584,M,7.521,217.667,
245,2015/09/11 04:00:00,0.431,0.399,11.7,M,6.748,219.195,
246,2015/09/11 05:00:00,0.294,0.441,10.964,M,6.996,211.068,
247,2015/09/11 06:00:00,0.162,0.448,10.46,M,7.159,207.65,
248,2015/09/11 07:00:00,0.166,0.496,10.592,M,8.042,215.638,
249,2015/09/11 08:00:00,0.188,0.592,12.846,M,8.524,228.331,
250,2015/09/11 09:00:00,0.49,0.377,15.101,M,9.197,239.295,
251,2015/09/11 10:00:00,0.366,0.312,17.58,M,8.226,244.599,
252,2015/09/11 11:00:00,0.439,0.274,19.85,M,8.829,246.125,
253,2015/09/11 12:00:00,0.383,0.319,21.368,M,10.67,253.619,
254,2015/09/11 13:00:00,0.382,0.285,22.743,M,13.959,264.169,
255,2015/09/11 14:00:00,0.5,0.255,23.152,M,16.328,272.234,
256,2015/09/11 15:00:00,0.536,0.343,23.469,M,14.793,268.969,
257,2015/09/11 16:00:00,0.522,0.323,23.955,M,12.284,257.745,
258,2015/09/11 17:00:00,0.423,0.363,24.514,M,9.964,246.756,
259,2015/09/11 18:00:00,0.473,0.39,24.569,M,8.82,228.969,
260,2015/09/11 19:00:00,0.389,0.477,21.852,M,5.955,207.29,
261,2015/09/11 20:00:00,0.353,0.565,18.847,M,6.762,211.605,
262,2015/09/11 21:00:00,0.631,0.537,17.948,M,7.374,220.054,
263,2015/09/11 22:00:00,0.794,0.543,16.719,M,9.282,227.989,
264,2015/09/11 23:00:00,0.48,0.514,16.69,M,8.179,232.584,
265,2015/09/12 00:00:00,0.516,0.598,15.818,M,8.813,232.053,
266,2015/09/12 01:00:00,Z,Z,15.037,M,9.235,228.888,
267,2015/09/12 02:00:00,0.385,0.62,14.692,M,9.76,234.504,
268,2015/09/12 03:00:00,0.415,0.599,14.783,M,10.249,247.501,
269,2015/09/12 04:00:00,0.38,0.611,14.687,M,11.573,259.343,
270,2015/09/12 05:00:00,0.536,0.532,14.893,M,11.887,261.543,
271,2015/09/12 06:00:00,0.612,0.887,13.945,M,11.158,290.179,
272,2015/09/12 07:00:00,0.614,0.933,14.467,M,14.823,282.462,
273,2015/09/12 08:00:00,0.756,1.106,15.463,M,12.494,277.954,
274,2015/09/12 09:00:00,0.948,0.934,17.901,M,9.413,275.2,
275,2015/09/12 10:00:00,0.844,0.728,21.218,M,9.676,277.649,
276,2015/09/12 11:00:00,0.44,0.485,23.191,M,12.195,275.009,
277,2015/09/12 12:00:00,0.275,0.403,24.31,M,13.39,269.407,
278,2015/09/12 13:00:00,0.352,0.413,24.916,M,15.839,282.941,
279,2015/09/12 14:00:00,0.471,0.454,25.589,M,14.869,280.544,
280,2015/09/12 15:00:00,0.494,0.467,26.189,M,17.04,282.445,
281,2015/09/12 16:00:00,0.55,0.497,26.549,M,12.676,264.615,
282,2015/09/12 17:00:00,0.551,0.566,26.594,M,12.692,270.201,
283,2015/09/12 18:00:00,0.603,0.562,24.977,M,14.967,315.413,
284,2015/09/12 19:00:00,0.51,0.627,21.989,M,11.548,335.63,
285,2015/09/12 20:00:00,0.551,0.553,18.822,M,26.997,357.017,
286,2015/09/12 21:00:00,0.376,0.533,16.501,M,22.683,10.832,
287,2015/09/12 22:00:00,0.446,0.505,15.285,M,17.751,346.284,
288,2015/09/12 23:00:00,0.416,0.541,13.059,M,17.892,340.552,
289,2015/09/13 00:00:00,0.43,0.47,11.511,M,12.605,335.751,
290,2015/09/13 01:00:00,Z,Z,10.886,M,13.535,330.442,
291,2015/09/13 02:00:00,0.19,0.445,10.423,M,9.821,332.598,
292,2015/09/13 03:00:00,0.387,0.576,10.619,M,10.911,293.136,
293,2015/09/13 04:00:00,0.281,0.585,10.801,M,11.598,295.841,
294,2015/09/13 05:00:00,0.489,0.861,10.942,M,14.477,306.524,
295,2015/09/13 06:00:00,0.352,1.11,10.58,M,13.671,311.287,
296,2015/09/13 07:00:00,0.273,0.706,10.143,M,13.321,319.128,
297,2015/09/13 08:00:00,0.382,0.638,10.119,M,12.7,318.547,
298,2015/09/13 09:00:00,0.338,0.597,10.616,M,12.167,317.792,
299,2015/09/13 10:00:00,0.823,0.513,11.66,M,9.058,303.679,
300,2015/09/13 11:00:00,0.604,0.455,12.749,M,9.847,288.695,
301,2015/09/13 12:00:00,0.584,0.452,13.804,M,10.666,283.492,
302,2015/09/13 13:00:00,0.536,0.428,15.247,M,8.422,300.961,
303,2015/09/13 14:00:00,0.553,0.395,15.941,M,7.723,311.389,
304,2015/09/13 15:00:00,0.471,0.325,16.85,M,7.228,349.028,
305,2015/09/13 16:00:00,0.388,0.448,16.394,M,9.235,351.992,
306,2015/09/13 17:00:00,0.452,0.38,15.835,M,6.66,307.899,
307,2015/09/13 18:00:00,0.505,0.382,14.947,M,4.58,283.027,
308,2015/09/13 19:00:00,0.455,0.489,14.405,M,4.131,257.029,
309,2015/09/13 20:00:00,0.349,0.591,13.096,M,6.034,253.711,
310,2015/09/13 21:00:00,0.407,0.455,11.677,M,8.74,257.717,
311,2015/09/13 22:00:00,0.442,0.528,10.747,M,12.153,277.064,
312,2015/09/13 23:00:00,0.575,0.56,9.685,M,16.762,300.2,
313,2015/09/14 00:00:00,0.829,0.763,8.637,M,14.36,306.107,
314,2015/09/14 01:00:00,Z,Z,8.101,M,12.969,298.059,
315,2015/09/14 02:00:00,0.452,0.498,7.689,M,9.8,285.993,
316,2015/09/14 03:00:00,0.478,0.485,7.374,M,10.591,284.052,
317,2015/09/14 04:00:00,0.382,0.54,7.079,M,12.054,281.058,
318,2015/09/14 05:00:00,0.341,0.557,6.505,M,13.159,301.66,
319,2015/09/14 06:00:00,0.387,0.643,6.231,M,14.441,315.508,
320,2015/09/14 07:00:00,0.416,0.805,7.059,M,10.576,309.869,
321,2015/09/14 08:00:00,0.676,1.003,7.793,M,11.11,300.489,
322,2015/09/14 09:00:00,0.461,0.702,8.281,M,13.493,316.637,
323,2015/09/14 10:00:00,0.465,0.353,9.059,M,12.217,341.826,
324,2015/09/14 11:00:00,0.339,0.365,9.472,M,13.173,16.912,
325,2015/09/14 12:00:00,0.281,0.345,9.741,M,10.507,18.639,
326,2015/09/14 13:00:00,0.446,0.18,10.949,M,6.958,14.167,
327,2015/09/14 14:00:00,0.597,0.322,10.874,M,10.601,14.786,
328,2015/09/14 15:00:00,0.773,0.176,11.012,M,9.594,357.837,
329,2015/09/14 16:00:00,0.607,0.156,11.389,M,7.441,353.521,
330,2015/09/14 17:00:00,0.648,0.199,11.094,M,4.772,1.465,
331,2015/09/14 18:00:00,0.519,0.248,10.936,M,4.512,40.688,
332,2015/09/14 19:00:00,0.404,0.266,10.164,M,6.445,49.099,
333,2015/09/14 20:00:00,0.222,0.265,9.45,M,6.662,55.75,
334,2015/09/14 21:00:00,0.214,0.276,8.389,M,5.2,32.856,
335,2015/09/14 22:00:00,0.27,0.419,7.194,M,3.738,27.595,
336,2015/09/14 23:00:00,0.242,0.657,7.229,M,3.884,68.075,
337,2015/09/15 00:00:00,0.34,0.747,6.908,M,4.25,48.039,
338,2015/09/15 01:00:00,Z,Z,6.35,M,4.594,36.831,
339,2015/09/15 02:00:00,0.371,0.968,6.302,M,6.61,74.448,
340,2015/09/15 03:00:00,0.538,0.769,6.45,M,5.178,80.827,
341,2015/09/15 04:00:00,0.073,0.757,6.845,M,8.095,82.138,
342,2015/09/15 05:00:00,-0.248,0.862,6.853,M,7.151,64.533,
343,2015/09/15 06:00:00,0.0,0.918,6.747,M,7.832,67.52,
344,2015/09/15 07:00:00,0.176,0.776,6.837,M,9.688,68.779,
345,2015/09/15 08:00:00,0.245,0.776,7.074,M,11.121,73.662,
346,2015/09/15 09:00:00,0.149,0.557,7.501,M,14.209,74.016,
347,2015/09/15 10:00:00,0.151,0.444,7.864,M,13.358,78.147,
348,2015/09/15 11:00:00,0.232,0.549,8.09,M,12.404,71.596,
349,2015/09/15 12:00:00,0.204,0.492,8.252,M,14.044,79.953,
350,2015/09/15 13:00:00,0.222,0.417,7.992,M,11.574,73.286,
351,2015/09/15 14:00:00,0.238,0.458,8.053,M,10.437,68.506,
352,2015/09/15 15:00:00,0.278,0.495,8.168,M,10.784,65.909,
353,2015/09/15 16:00:00,0.287,0.483,8.174,M,10.469,63.416,
354,2015/09/15 17:00:00,0.232,0.405,8.181,M,10.875,68.613,
355,2015/09/15 18:00:00,0.255,0.47,8.23,M,10.98,69.181,
356,2015/09/15 19:00:00,0.305,0.392,7.804,M,8.511,55.956,
357,2015/09/15 20:00:00,0.204,0.37,7.456,M,9.872,59.088,
358,2015/09/15 21:00:00,0.05,0.341,7.098,M,7.342,55.502,
359,2015/09/15 22:00:00,0.196,0.336,6.958,M,7.003,62.98,
360,2015/09/15 23:00:00,0.274,0.329,6.861,M,4.758,40.536,
361,2015/09/16 00:00:00,0.318,0.398,6.833,M,4.231,19.13,
362,2015/09/16 01:00:00,Z,Z,6.819,M,5.792,25.505,
363,2015/09/16 02:00:00,0.191,0.36,6.89,M,4.044,65.588,
364,2015/09/16 03:00:00,0.368,0.407,6.884,M,3.299,57.669,
365,2015/09/16 04:00:00,0.195,0.435,6.884,M,2.957,71.077,
366,2015/09/16 05:00:00,0.23,0.432,6.969,M,2.902,107.408,
367,2015/09/16 06:00:00,0.868,0.739,7.068,M,2.884,99.16,
368,2015/09/16 07:00:00,0.455,0.437,7.027,M,2.932,72.41,
369,2015/09/16 08:00:00,0.233,0.476,7.253,M,4.019,35.901,
370,2015/09/16 09:00:00,0.37,0.488,7.591,M,4.584,27.424,
371,2015/09/16 10:00:00,0.481,0.478,7.744,M,3.58,15.607,
372,2015/09/16 11:00:00,0.433,0.396,8.138,M,6.557,344.167,
373,2015/09/16 12:00:00,0.349,0.36,8.491,M,9.953,338.721,
374,2015/09/16 13:00:00,0.346,0.319,8.874,M,9.518,339.978,
375,2015/09/16 14:00:00,0.229,0.195,9.229,M,10.304,327.552,
376,2015/09/16 15:00:00,0.3,0.211,8.866,M,16.911,316.721,
377,2015/09/16 16:00:00,0.189,0.336,9.368,M,16.057,321.624,
378,2015/09/16 17:00:00,0.271,0.277,9.387,M,15.953,321.269,
379,2015/09/16 18:00:00,0.33,0.226,9.343,M,12.964,326.274,
380,2015/09/16 19:00:00,0.221,0.284,8.288,M,11.106,320.51,
381,2015/09/16 20:00:00,0.155,0.272,6.718,M,6.583,323.237,
382,2015/09/16 21:00:00,0.258,0.521,6.315,M,3.553,310.907,
383,2015/09/16 22:00:00,0.504,1.23,6.925,M,3.684,269.274,
384,2015/09/16 23:00:00,0.58,1.036,7.06,M,5.843,285.546,
385,2015/09/17 00:00:00,0.378,1.054,7.279,M,6.345,281.825,
386,2015/09/17 01:00:00,Z,Z,7.188,M,5.873,282.197,
387,2015/09/17 02:00:00,0.426,0.924,7.231,M,5.637,280.18,
388,2015/09/17 03:00:00,0.305,0.575,7.167,M,7.68,274.054,
389,2015/09/17 04:00:00,0.26,0.689,7.099,M,6.291,280.852,
390,2015/09/17 05:00:00,0.485,1.594,7.035,M,4.452,295.79,
391,2015/09/17 06:00:00,0.324,1.129,6.86,M,3.789,285.064,
392,2015/09/17 07:00:00,0.35,0.74,6.886,M,3.542,262.565,
393,2015/09/17 08:00:00,0.54,0.8,8.053,M,1.133,177.498,
394,2015/09/17 09:00:00,0.353,0.321,9.317,M,3.338,229.171,
395,2015/09/17 10:00:00,0.39,0.222,10.723,M,3.113,206.874,
396,2015/09/17 11:00:00,0.467,0.186,11.566,M,4.955,237.936,
397,2015/09/17 12:00:00,0.665,0.085,12.479,M,6.787,235.313,
398,2015/09/17 13:00:00,0.596,0.159,13.113,M,8.414,244.908,
399,2015/09/17 14:00:00,0.713,0.164,13.827,M,9.218,248.818,